+ View the NASA Portal
+ Center for Near-Earth Object Studies
IMPORTANT:
The SSD Announcement email list is now available. Major changes are coming in the near future, including possible hostname and/or URL changes. To be notified of such changes, subscribe to this email list.
Please visit
this page
for more details.
Don't show this message again
JPL Small-Body Database Browser
Search:
[
help
]
109434 (2001 QV196)
Classification:
Main-belt Asteroid
SPK-ID:
2109434
[
Ephemeris
|
Orbit Diagram
|
Orbital Elements
|
Mission Design
|
Physical Parameters
|
Discovery Circumstances
|
Close-Approach Data
]
[ show orbit diagram ]
Orbital Elements at Epoch 2458600.5 (2019-Apr-27.0) TDB
Reference:
JPL 23
(heliocentric ecliptic J2000)
Element
Value
Uncertainty (1-sigma)
Units
e
.1537060502860759
4.2924e-08
a
2.675418998821047
1.7304e-08
au
q
2.264190911651936
1.1605e-07
au
i
12.33490241858227
6.4576e-06
deg
node
322.5094005206695
1.6362e-05
deg
peri
237.244763597169
2.4977e-05
deg
M
136.6998569122985
1.8946e-05
deg
t
p
2457993.551704324720
(2017-Aug-28.05170432)
8.3504e-05
TDB
period
1598.402451754453
4.38
1.5507e-05
4.246e-08
d
yr
n
.2252248797571935
2.185e-09
deg/d
Q
3.086647085990157
1.9963e-08
au
Orbit Determination Parameters
# obs. used (total)
860
data-arc span
6674 days (18.27 yr)
first obs. used
2001-08-16
last obs. used
2019-11-24
planetary ephem.
DE431
SB-pert. ephem.
SB431-N16
condition code
0
norm. resid. RMS
.54436
source
ORB
producer
Otto Matic
solution date
2019-Dec-04 10:15:39
Additional Information
Earth MOID
= 1.2908 au
Jupiter MOID
= 1.99832 au
T_jup
= 3.329
[ show covariance matrix ]
[
Ephemeris
|
Orbit Diagram
|
Orbital Elements
|
Mission Design
|
Physical Parameters
|
Discovery Circumstances
|
Close-Approach Data
]
Physical Parameter Table
Parameter
Symbol
Value
Units
Sigma
Reference
Notes
absolute magnitude
H
14.9
n/a
MPO449653
diameter
diameter
3.284
km
0.602
urn:nasa:pds:neowise_diameters_albedos::2.0[mainbelt] (http://adsabs.harvard.edu/abs/2011ApJ...741...68M)
geometric albedo
albedo
0.216
0.109
urn:nasa:pds:neowise_diameters_albedos::2.0[mainbelt] (http://adsabs.harvard.edu/abs/2011ApJ...741...68M)
109434 (2001 QV196)
Discovered 2001-Aug-22 by Spacewatch at Kitt Peak
Reference:
20051019/Numbers.arc
Last Updated:
2005-10-26
[ show close-approach data ]
[
Ephemeris
|
Orbit Diagram
|
Orbital Elements
|
Mission Design
|
Physical Parameters
|
Discovery Circumstances
|
Close-Approach Data
]
2019-Dec-15 03:52 UT
(server date/time)
Site Manager:
Ryan S. Park
Webmaster
:
Alan B. Chamberlin